GSLV R/B

Last updated on Thu Oct 30 2025 00:02:16 GMT+0000 (Coordinated Universal Time)

1 54149U 22138AN 25302.50625294 .00004309 00000+0 38298-3 0 9992 2 54149 87.3853 210.2744 0018993 269.0514 90.8540 14.95760494164316
UTC large
Height (km)
Speed (km/s)
/
Latitude / Longitude
Inclination (degrees)
Orbital Period (minutes)
Azimuth
Elevation
Range (km)
Doppler Factor

Next 0 passes for location: London (51.5072 / 0.1276)

Sorry there are no passes over London.